sat.trackr.live / text

‹ back to catalog

STARLINK-36287

NORAD 67708 · 2026-025R

PAYLOAD ACTIVE UNKNOWN

§ Identity

Operator
Country
US
Launch date
2026-02-07
Launch site
AFWTR
Launch vehicle
Mass (kg)
RCS (m²)

Purposes: comms

External: N2YO · Heavens-Above · Gunter

§ Orbital elements

Epoch: 2026-05-25T00:40:39.117792Z

Period
93.91 min
Inclination
97.2846°
Eccentricity
0.0000138
Mean motion
15.33460854 rev/d
Perigee alt
465.4 km
Apogee alt
465.6 km
Semi-major
6,843.6 km
B*
5.3049e-4
RAAN
256.6755°
Arg perigee
148.8074°
Mean anomaly
211.3177°
Rev number
1,772

§ Raw data

STARLINK-362871 67708U 26025R   26145.02823053  .00017098  00000+0  53049-3 0  99922 67708  97.2846 256.6755 0000138 148.8074 211.3177 15.33460854 17724

JSON: /api/v1/satellites/67708 · /tle

For live sub-satellite position, see the globe view (requires WebGL).

§ Visibility from observer

Set your observer location to see the next 7 days of passes ≥ 10°. The values pass through the URL so the page stays shareable.

No JS? Fill the form by hand. The geolocation button needs JavaScript.